1537671601.12,51116,15.19,73762.5,-4.23,-5.15,-5.19,0,*5B
1537671602.4,51117,15.19,73760.8,-4.23,-5.19,-5.15,0,*5A
1537671603.68,51118,15.19,73760.5,-4.23,-5.27,-5.19,0,*54
1537671604.96,51119,15.19,73760.0,-4.23,-5.19,-5.19,0,*58
1537671606.24,51120,15.19,73762.8,-4.23,-5.19,-5.15,0,*5E
1537671607.52,51121,15.19,73760.5,-4.23,-5.19,-5.19,0,*53
1537671608.78,51122,15.19,73762.3,-4.23,-5.39,-5.27,0,*5F
1537671610.06,51123,15.19,73760.8,-4.23,-5.27,-5.27,0,*51
1537671611.34,51124,15.19,73762.3,-4.23,-5.27,-5.27,0,*56
1537671612.6,51125,15.19,73760.8,-4.21,-5.27,-5.31,0,*52
1537671613.86,51126,15.19,73760.5,-4.21,-5.19,-5.19,0,*56
1537671615.14,51127,15.19,73760.3,-4.23,-5.27,-5.19,0,*58
1537671616.42,51128,15.19,73760.0,-4.23,-5.31,-5.19,0,*50
1537671617.68,51129,15.19,73762.5,-4.21,-5.27,-5.19,0,*54
1537671618.94,51130,15.19,73762.5,-4.21,-5.27,-5.27,0,*51
1537671620.2,51131,15.19,73762.8,-4.21,-5.19,-5.19,0,*50
1537671621.46,51132,15.19,73766.0,-4.21,-5.27,-5.19,0,*5E
1537671622.72,51133,15.19,73764.0,-4.21,-5.19,-5.19,0,*52
1537671623.99,51134,15.19,73764.8,-4.21,-5.19,-5.27,0,*58
1537671625.26,51135,15.19,73760.8,-4.23,-5.27,-5.19,0,*5B
1537671626.53,51136,15.19,73764.3,-4.21,-5.27,-5.27,0,*57
1537671627.79,51137,15.19,73766.8,-4.21,-5.19,-5.27,0,*5B
1537671629.05,51138,15.19,73762.5,-4.21,-5.19,-5.27,0,*54
1537671630.31,51139,15.19,73764.0,-4.21,-5.19,-5.19,0,*58
1537671631.57,51140,15.19,73762.3,-4.21,-5.27,-5.27,0,*56
1537671632.83,51141,15.19,73766.8,-4.21,-5.19,-5.19,0,*57
1537671634.09,51142,15.19,73764.0,-4.21,-5.19,-5.27,0,*59
1537671635.35,51143,15.19,73764.5,-4.21,-5.19,-5.19,0,*55
1537671636.61,51144,15.19,73766.5,-4.21,-5.19,-5.19,0,*52
1537671637.88,51145,15.19,73764.0,-4.21,-5.15,-5.15,0,*53
1537671639.14,51146,15.19,73766.3,-4.21,-5.19,-5.19,0,*50
1537671640.41,51147,15.19,73764.3,-4.19,-5.11,-5.15,0,*5E
1537671641.7,51148,15.19,73766.3,-4.19,-5.03,-5.11,0,*56
1537671642.96,51149,15.19,73766.5,-4.17,-5.07,-5.07,0,*5A
1537671644.22,51150,15.19,73768.3,-4.17,-5.11,-5.07,0,*55
1537671645.5,51151,15.19,73768.0,-4.19,-5.11,-5.15,0,*59
1537671646.79,51152,15.19,73764.0,-4.19,-5.23,-5.15,0,*5B
1537671648.08,51153,15.19,73770.0,-4.19,-5.23,-5.23,0,*5F
1537671649.36,51154,15.19,73770.8,-4.19,-5.23,-5.15,0,*5D
1537671650.65,51155,15.19,73766.3,-4.19,-5.23,-5.11,0,*58
1537671651.91,51156,15.19,73770.0,-4.17,-5.19,-5.19,0,*54
1537671653.2,51157,15.19,73768.5,-4.19,-5.23,-5.23,0,*5B
1537671654.48,51158,15.19,73766.5,-4.19,-5.15,-5.15,0,*54
1537671655.74,51159,15.19,73766.5,-4.17,-5.19,-5.19,0,*5B
1537671657.0,51160,15.19,73766.5,-4.17,-5.19,-5.19,0,*51
1537671658.29,51161,15.19,73766.0,-4.19,-5.23,-5.23,0,*5E
1537671659.57,51162,15.19,73764.0,-4.19,-5.23,-5.11,0,*5C
1537671660.86,51163,15.19,73766.8,-4.19,-5.15,-5.15,0,*5C
1537671662.15,51164,15.19,73764.0,-4.19,-5.23,-5.23,0,*5B
1537671663.44,51165,15.19,73764.3,-4.19,-5.23,-5.27,0,*5E
1537671664.72,51166,15.19,73760.5,-4.19,-5.15,-5.23,0,*5C
1537671665.98,51167,15.19,73760.3,-4.17,-5.11,-5.19,0,*5E
1537671667.23,51168,15.19,73762.0,-4.17,-5.11,-5.11,0,*59
1537671668.49,51169,15.19,73760.8,-4.17,-5.19,-5.19,0,*58
1537671669.78,51170,15.19,73760.8,-4.19,-5.15,-5.15,0,*5E
1537671671.06,51171,15.19,73760.3,-4.19,-5.27,-5.27,0,*5F
1537671672.33,51172,15.19,73758.8,-4.17,-5.23,-5.23,0,*52
1537671673.58,51173,15.19,73762.3,-4.17,-5.11,-5.11,0,*53
1537671674.84,51174,15.19,73760.5,-4.17,-5.19,-5.19,0,*54
1537671676.13,51175,15.19,73760.8,-4.19,-5.15,-5.23,0,*5E
1537671677.39,51176,15.19,73760.5,-4.17,-5.19,-5.11,0,*5E
1537671678.65,51177,15.19,73762.8,-4.17,-5.19,-5.19,0,*57
1537671679.91,51178,15.19,73760.8,-4.17,-5.19,-5.19,0,*58
1537671681.2,51179,15.19,73760.0,-4.19,-5.23,-5.23,0,*57
1537671682.46,51180,15.19,73760.0,-4.17,-5.11,-5.07,0,*58
1537671683.75,51181,15.19,73762.3,-4.15,-5.07,-5.07,0,*5C
1537671685.0,51182,15.19,73764.0,-4.17,-5.11,-5.07,0,*5A
1537671686.26,51183,15.19,73764.3,-4.17,-5.11,-5.19,0,*54
1537671687.52,51184,15.19,73766.3,-4.13,-5.11,-5.07,0,*58
1537671688.8,51185,15.19,73764.3,-4.15,-5.11,-5.19,0,*50
1537671690.08,51186,15.19,73762.3,-4.15,-5.07,-5.11,0,*5C
1537671691.37,51187,15.19,73764.0,-4.15,-5.19,-5.11,0,*52
1537671692.65,51188,15.19,73764.8,-4.15,-5.11,-5.19,0,*5D
1537671693.93,51189,15.19,73768.8,-4.15,-5.19,-5.11,0,*5C
1537671695.19,51190,15.19,73768.8,-4.13,-5.15,-5.15,0,*5A
1537671696.45,51191,15.19,73766.5,-4.13,-5.11,-5.15,0,*5F
1537671697.71,51192,15.19,73770.5,-4.13,-5.15,-5.07,0,*5B
1537671698.99,51193,15.19,73764.3,-4.15,-5.19,-5.19,0,*5F
1537671700.28,51194,15.19,73770.8,-4.15,-5.19,-5.11,0,*50
1537671701.55,51195,15.19,73766.8,-4.15,-5.11,-5.11,0,*59
1537671702.83,51196,15.19,73770.5,-4.15,-5.11,-5.19,0,*52
1537671704.1,51197,15.19,73764.5,-4.13,-5.03,-5.07,0,*59
1537671705.38,51198,15.19,73766.0,-4.15,-5.11,-5.19,0,*5C
1537671706.66,51199,15.19,73770.0,-4.15,-5.23,-5.31,0,*56
1537671707.93,51200,15.19,73768.0,-4.15,-5.35,-5.23,0,*51
1537671709.21,51201,15.19,73770.0,-4.15,-5.31,-5.23,0,*54
1537671710.48,51202,15.19,73766.8,-4.17,-5.23,-5.23,0,*56
1537671711.74,51203,15.19,73768.5,-4.17,-5.23,-5.19,0,*5E
1537671713.0,51204,15.19,73768.3,-4.13,-5.15,-5.15,0,*54
1537671714.29,51205,15.19,73766.8,-4.15,-5.19,-5.19,0,*53
1537671715.57,51206,15.19,73768.3,-4.15,-5.23,-5.19,0,*59
1537671716.84,51207,15.19,73766.3,-4.13,-5.15,-5.19,0,*5B
1537671718.12,51208,15.19,73770.0,-4.15,-5.19,-5.23,0,*57
1537671719.41,51209,15.19,73766.8,-4.15,-5.19,-5.19,0,*5F
1537671720.69,51210,15.19,73764.3,-4.15,-5.19,-5.23,0,*5E
1537671721.98,51211,15.19,73770.3,-4.15,-5.19,-5.31,0,*5C
1537671723.24,51212,15.19,73764.5,-4.13,-5.15,-5.19,0,*5F
1537671724.5,51213,15.19,73764.3,-4.13,-5.27,-5.15,0,*53
1537671725.76,51214,15.19,73762.5,-4.13,-5.15,-5.07,0,*56
1537671727.05,51215,15.19,73764.3,-4.15,-5.19,-5.19,0,*52
1537671728.32,51216,15.19,73762.8,-4.15,-5.11,-5.11,0,*51
1537671729.61,51217,15.19,73768.0,-4.15,-5.19,-5.23,0,*59
1537671730.9,51218,15.19,73764.5,-4.15,-5.23,-5.23,0,*5F
1537671732.19,51219,15.19,73766.5,-4.15,-5.23,-5.19,0,*57
1537671733.47,51220,15.19,73766.8,-4.15,-5.19,-5.23,0,*5D
1537671734.74,51221,15.19,73764.0,-4.13,-5.15,-5.19,0,*5F
1537671735.99,51222,15.19,73764.0,-4.13,-5.19,-5.15,0,*5C
1537671737.28,51223,15.19,73766.8,-4.15,-5.19,-5.23,0,*5E
1537671738.56,51224,15.19,73766.8,-4.15,-5.19,-5.11,0,*58
1537671739.84,51225,15.19,73766.5,-4.15,-5.11,-5.11,0,*51
1537671741.1,51226,15.19,73766.5,-4.13,-5.15,-5.19,0,*58
1537671742.39,51227,15.19,73764.8,-4.15,-5.19,-5.19,0,*53
1537671743.65,51228,15.19,73766.0,-4.13,-5.15,-5.15,0,*5A
1537671744.91,51229,15.19,73764.3,-4.13,-5.15,-5.15,0,*5B
1537671746.19,51230,15.19,73760.0,-4.15,-5.19,-5.11,0,*5D
1537671747.45,51231,15.19,73764.5,-4.13,-5.19,-5.07,0,*5D
1537671748.72,51232,15.19,73764.0,-4.13,-5.15,-5.07,0,*52
1537671749.98,51233,15.19,73764.5,-4.13,-5.07,-5.15,0,*53
1537671751.26,51234,15.19,73766.8,-4.15,-5.11,-5.19,0,*59
1537671752.54,51235,15.19,73764.5,-4.15,-5.11,-5.11,0,*50
1537671753.81,51236,15.19,73764.8,-4.13,-5.07,-5.03,0,*51
1537671755.07,51237,15.19,73766.5,-4.13,-5.07,-5.03,0,*50
1537671756.33,51238,15.19,73764.8,-4.13,-5.03,-4.93,0,*53
1537671757.59,51239,15.19,73766.5,-4.13,-5.03,-5.03,0,*5A
1537671758.85,51240,15.19,73766.3,-4.13,-5.19,-5.15,0,*58
1537671760.11,51241,15.19,73766.3,-4.13,-5.27,-5.19,0,*58
1537671761.4,51242,15.19,73764.5,-4.15,-5.23,-5.23,0,*50
1537671762.66,51243,15.19,73768.5,-4.13,-5.15,-5.15,0,*57
1537671763.95,51244,15.19,73768.8,-4.15,-5.23,-5.27,0,*52
1537671765.21,51245,15.19,73766.5,-4.13,-5.19,-5.19,0,*51
1537671766.5,51246,15.19,73764.5,-4.15,-5.31,-5.31,0,*54
1537671767.76,51247,15.19,73766.0,-4.13,-5.15,-5.19,0,*5F
1537671769.02,51248,15.19,73760.0,-4.13,-5.19,-5.27,0,*51
1537671770.28,51249,15.19,73766.3,-4.13,-5.19,-5.31,0,*57
1537671771.57,51250,15.19,73764.0,-4.15,-5.19,-5.23,0,*5A
1537671772.84,51251,15.19,73764.3,-4.13,-5.07,-5.07,0,*54
1537671774.12,51252,15.19,73764.8,-4.15,-5.19,-5.07,0,*5E
1537671775.39,51253,15.19,73766.0,-4.13,-5.15,-5.03,0,*51
1537671776.67,51254,15.19,73766.3,-4.11,-5.07,-5.03,0,*57
1537671777.93,51255,15.19,73764.0,-4.13,-5.07,-5.15,0,*53
1537671779.19,51256,15.19,73764.8,-4.13,-5.07,-5.15,0,*50
1537671780.46,51257,15.19,73766.0,-4.13,-5.15,-5.15,0,*52
1537671781.72,51258,15.19,73766.8,-4.13,-5.15,-5.07,0,*5E
1537671782.99,51259,15.19,73764.5,-4.13,-5.15,-5.07,0,*5F
1537671784.27,51260,15.19,73764.8,-4.11,-5.15,-5.15,0,*54
1537671785.55,51261,15.19,73764.8,-4.11,-5.15,-5.07,0,*56
1537671786.83,51262,15.19,73766.5,-4.11,-5.15,-5.15,0,*56
1537671788.12,51263,15.19,73766.0,-4.11,-5.07,-5.07,0,*57
1537671789.4,51264,15.19,73764.0,-4.11,-5.07,-5.03,0,*54
1537671790.69,51265,15.19,73764.8,-4.11,-5.07,-5.15,0,*52
1537671791.97,51266,15.19,73766.8,-4.11,-5.07,-5.07,0,*52
1537671793.25,51267,15.19,73766.3,-4.11,-5.07,-5.03,0,*57
1537671794.53,51268,15.19,73764.8,-4.11,-4.93,-5.03,0,*54
1537671795.81,51269,15.19,73764.3,-4.11,-5.03,-5.03,0,*5D
1537671797.1,51270,15.19,73768.3,-4.11,-5.03,-5.03,0,*55
1537671798.38,51271,15.19,73768.5,-4.11,-5.15,-5.07,0,*57
1537671799.67,51272,15.19,73770.5,-4.11,-5.15,-5.07,0,*54
1537671800.92,51273,15.19,73768.3,-4.09,-5.07,-5.15,0,*5C
1537671802.18,51274,15.19,73768.5,-4.09,-5.07,-5.07,0,*58
1537671803.46,51275,15.19,73768.3,-4.11,-5.15,-5.07,0,*53
1537671804.72,51276,15.19,73770.0,-4.09,-5.07,-5.07,0,*5A
1537671805.98,51277,15.19,73766.3,-4.09,-5.07,-5.07,0,*5B
1537671807.24,51278,15.19,73770.0,-4.09,-5.15,-5.07,0,*57
1537671808.5,51279,15.19,73772.3,-4.09,-5.07,-5.07,0,*55
1537671809.79,51280,15.19,73768.0,-4.11,-5.15,-5.07,0,*59
1537671811.07,51281,15.19,73768.0,-4.11,-5.07,-5.07,0,*5B
1537671812.33,51282,15.19,73768.0,-4.09,-5.07,-5.03,0,*55
1537671813.59,51283,15.19,73770.8,-4.09,-5.07,-5.07,0,*50
1537671814.85,51284,15.19,73772.3,-4.09,-5.15,-5.07,0,*54
1537671816.1,51285,15.19,73770.8,-4.09,-5.07,-5.15,0,*55
1537671817.36,51286,15.19,73768.0,-4.09,-5.19,-5.15,0,*59
1537671818.61,51287,15.19,73770.0,-4.05,-5.11,-5.11,0,*58
1537671819.86,51288,15.19,73770.0,-4.09,-5.19,-5.15,0,*57
1537671821.12,51289,15.19,73770.5,-4.09,-5.19,-5.15,0,*56
1537671822.37,51290,15.19,73768.8,-4.09,-5.19,-5.15,0,*5E
1537671823.62,51291,15.19,73772.0,-4.09,-5.19,-5.19,0,*53
1537671824.88,51292,15.19,73770.8,-4.09,-5.19,-5.15,0,*5C
1537671826.13,51293,15.19,73770.8,-4.09,-5.15,-5.07,0,*52
1537671827.39,51294,15.19,73768.3,-4.09,-5.19,-5.15,0,*5A
1537671828.65,51295,15.19,73768.0,-4.05,-5.15,-5.11,0,*5F
1537671829.9,51296,15.19,73770.3,-4.09,-5.19,-5.15,0,*58
1537671831.15,51297,15.19,73772.5,-4.09,-5.27,-5.15,0,*54
1537671832.41,51298,15.19,73768.5,-4.09,-5.19,-5.15,0,*56
1537671833.66,51299,15.19,73770.3,-4.05,-5.11,-5.03,0,*54
1537671834.92,51300,15.19,73770.5,-4.05,-5.15,-5.11,0,*52
1537671836.19,51301,15.19,73768.8,-4.05,-5.15,-5.15,0,*57
1537671837.41,51302,15.19,73770.3,-4.03,-5.11,-4.99,0,*53
1537671838.67,51303,15.19,73772.5,-4.03,-5.07,-5.07,0,*53
1537671839.93,51304,15.19,73770.3,-4.05,-5.03,-5.03,0,*52
1537671841.19,51305,15.19,73770.0,-4.09,-5.07,-5.15,0,*5C
1537671842.44,51306,15.19,73770.8,-4.05,-5.11,-5.11,0,*50
1537671843.71,51307,15.19,73768.8,-4.05,-5.03,-5.03,0,*51
1537671844.96,51308,15.19,73768.0,-4.05,-5.11,-5.11,0,*5E
1537671846.22,51309,15.19,73770.8,-4.09,-5.15,-5.07,0,*50
1537671847.47,51310,15.19,73768.8,-4.05,-5.11,-5.11,0,*57
1537671848.7,51311,15.19,73770.8,-4.03,-5.07,-4.99,0,*56
1537671849.95,51312,15.19,73768.0,-4.05,-5.11,-5.11,0,*55
1537671851.21,51313,15.19,73768.5,-4.05,-5.15,-5.11,0,*50
1537671852.47,51314,15.19,73768.5,-4.05,-5.11,-5.11,0,*53
1537671853.72,51315,15.19,73768.8,-4.05,-5.11,-5.11,0,*52
1537671854.98,51316,15.19,73768.3,-4.03,-5.07,-5.07,0,*57
1537671856.24,51317,15.19,73768.3,-4.05,-5.11,-5.11,0,*50
1537671857.5,51318,15.19,73768.5,-4.05,-5.15,-5.11,0,*5B
1537671858.75,51319,15.19,73768.5,-4.05,-5.11,-5.11,0,*5E
1537671860.01,51320,15.19,73768.8,-4.05,-5.15,-5.15,0,*54
1537671861.28,51321,15.19,73770.5,-4.05,-5.15,-5.03,0,*52
1537671862.54,51322,15.19,73772.5,-4.05,-5.03,-5.11,0,*55
1537671863.79,51323,15.19,73770.5,-4.05,-5.11,-5.11,0,*57
1537671865.05,51324,15.19,73770.3,-4.05,-5.19,-5.15,0,*5C
1537671866.31,51325,15.19,73772.8,-4.05,-5.15,-5.15,0,*51
1537671867.58,51326,15.19,73770.8,-4.05,-5.15,-5.15,0,*52
1537671868.84,51327,15.19,73768.8,-4.05,-5.15,-5.15,0,*53
1537671870.09,51328,15.19,73768.5,-4.03,-5.19,-5.19,0,*5A
1537671871.34,51329,15.19,73770.0,-4.03,-5.11,-5.07,0,*5C
1537671872.57,51330,15.19,73770.8,-4.03,-5.07,-4.99,0,*55
1537671873.79,51331,15.19,73768.8,-4.03,-5.11,-4.99,0,*53
1537671875.05,51332,15.19,73768.0,-4.05,-5.11,-5.11,0,*57
1537671876.27,51333,15.19,73766.3,-4.03,-5.07,-4.99,0,*56
1537671877.53,51334,15.19,73768.8,-4.05,-5.03,-5.11,0,*52
1537671878.79,51335,15.19,73768.5,-4.03,-5.07,-5.07,0,*56
1537671880.01,51336,15.19,73768.8,-4.03,-5.11,-4.99,0,*54
1537671881.23,51337,15.19,73770.5,-4.03,-5.11,-4.99,0,*55
1537671882.49,51338,15.19,73770.3,-4.05,-5.11,-5.11,0,*5D
1537671883.78,51339,15.19,73770.0,-4.01,-5.07,-5.07,0,*58
1537671885.0,51340,15.19,73770.8,-4.03,-4.99,-5.11,0,*55
1537671886.25,51341,15.19,73766.3,-4.03,-5.11,-5.11,0,*55
1537671887.5,51342,15.19,73770.5,-4.03,-5.23,-5.19,0,*5F
1537671888.77,51343,15.19,73764.8,-4.05,-5.23,-5.23,0,*51
1537671890.03,51344,15.19,73764.3,-4.03,-5.23,-5.23,0,*50
1537671891.3,51345,15.19,73766.5,-4.05,-5.23,-5.23,0,*57
1537671892.55,51346,15.19,73762.3,-4.03,-5.15,-5.11,0,*56
1537671893.8,51347,15.19,73760.8,-4.03,-5.11,-5.11,0,*53
1537671895.06,51348,15.19,73764.5,-4.01,-5.07,-4.99,0,*58
1537671896.28,51349,15.19,73766.5,-4.03,-5.07,-4.99,0,*5B
1537671897.54,51350,15.19,73766.5,-4.05,-5.11,-5.11,0,*53
1537671898.79,51351,15.19,73768.5,-4.03,-5.23,-5.19,0,*5D
1537671900.03,51352,15.19,73762.8,-4.05,-5.35,-5.27,0,*52
1537671901.28,51353,15.19,73762.8,-4.03,-5.19,-5.31,0,*5C
1537671902.54,51354,15.19,73760.3,-4.03,-5.23,-5.23,0,*51
1537671903.78,51355,15.19,73760.0,-4.05,-5.23,-5.35,0,*51
1537671905.04,51356,15.19,73762.0,-4.03,-5.23,-5.23,0,*53
1537671906.31,51357,15.19,73756.5,-4.05,-5.23,-5.23,0,*54
1537671907.56,51358,15.19,73762.8,-4.03,-5.19,-5.19,0,*5D
1537671908.81,51359,15.19,73756.0,-4.03,-5.11,-5.19,0,*54
1537671910.07,51360,15.19,73760.3,-4.03,-5.19,-5.19,0,*56
1537671911.33,51361,15.19,73758.3,-4.05,-5.23,-5.23,0,*51
1537671912.59,51362,15.19,73758.0,-4.05,-5.27,-5.23,0,*56
1537671913.85,51363,15.19,73756.8,-4.05,-5.27,-5.27,0,*53
1537671915.12,51364,15.19,73752.8,-4.05,-5.15,-5.23,0,*51
1537671916.37,51365,15.19,73758.5,-4.03,-5.19,-5.19,0,*53
1537671917.62,51366,15.19,73752.3,-4.03,-5.11,-5.11,0,*50
1537671918.87,51367,15.19,73754.0,-4.03,-5.11,-5.19,0,*59
1537671920.13,51368,15.19,73758.0,-4.03,-5.19,-5.11,0,*56
1537671921.39,51369,15.19,73754.3,-4.05,-5.15,-5.23,0,*5C
1537671922.65,51370,15.19,73752.8,-4.03,-5.19,-5.11,0,*5F
1537671923.9,51371,15.19,73748.8,-4.03,-5.19,-5.19,0,*56
1537671925.16,51372,15.19,73752.3,-4.05,-5.15,-5.27,0,*52
1537671926.42,51373,15.19,73758.0,-4.03,-5.19,-5.19,0,*54
1537671927.67,51374,15.19,73752.5,-4.03,-5.19,-5.19,0,*53
1537671928.93,51375,15.19,73758.8,-4.03,-5.23,-5.19,0,*5B
1537671930.19,51376,15.19,73752.3,-4.03,-5.23,-5.31,0,*52
1537671931.45,51377,15.19,73752.3,-4.03,-5.31,-5.31,0,*50
1537671932.7,51378,15.19,73752.8,-4.03,-5.31,-5.31,0,*5F
1537671933.91,51379,15.19,73752.0,-4.05,-5.35,-5.35,0,*58
1537671935.17,51380,15.19,73752.3,-4.05,-5.27,-5.27,0,*5E
1537671936.43,51381,15.13,73750.0,-4.03,-5.23,-5.23,0,*59
1537671937.63,51382,15.19,73754.5,-4.05,-5.35,-5.35,0,*5C
1537671938.84,51383,15.19,73754.3,-4.05,-5.47,-5.47,0,*5D
1537671940.04,51384,15.19,73750.0,-4.03,-5.43,-5.35,0,*5D
1537671941.24,51385,15.19,73748.5,-4.03,-5.35,-5.35,0,*5D
1537671942.44,51386,15.19,73750.0,-4.05,-5.35,-5.35,0,*58
1537671943.63,51387,15.19,73748.0,-4.03,-5.43,-5.35,0,*5E
1537671944.84,51388,15.13,73742.5,-4.05,-5.39,-5.39,0,*56
1537671946.08,51389,15.19,73750.8,-4.05,-5.35,-5.27,0,*54
1537671947.34,51390,15.19,73754.0,-4.05,-5.27,-5.27,0,*5F
1537671948.59,51391,15.19,73750.3,-4.03,-5.23,-5.31,0,*5B
1537671949.86,51392,15.19,73748.3,-4.03,-5.23,-5.23,0,*5B
1537671951.12,51393,15.19,73746.0,-4.05,-5.23,-5.27,0,*58
1537671952.38,51394,15.19,73746.3,-4.03,-5.19,-5.23,0,*54
1537671953.63,51395,15.19,73748.5,-4.03,-5.19,-5.19,0,*5C
1537671954.89,51396,15.19,73744.3,-4.03,-5.23,-5.19,0,*56
1537671956.14,51397,15.19,73750.5,-4.03,-5.19,-5.19,0,*5E
1537671957.4,51398,15.19,73750.0,-4.03,-5.07,-5.11,0,*56
1537671958.66,51399,15.19,73746.0,-4.05,-5.23,-5.15,0,*53
1537671959.92,51400,15.19,73750.5,-4.03,-5.19,-5.19,0,*57
1537671961.18,51401,15.19,73748.5,-4.05,-5.27,-5.27,0,*50
1537671962.43,51402,15.19,73750.0,-4.03,-5.19,-5.11,0,*5D
1537671963.69,51403,15.19,73748.8,-4.03,-5.19,-5.11,0,*5C
1537671964.95,51404,15.19,73748.3,-4.05,-5.23,-5.15,0,*50
1537671966.2,51405,15.13,73746.8,-4.03,-5.19,-5.19,0,*52
1537671967.46,51406,15.19,73748.3,-4.03,-5.19,-5.19,0,*51
1537671968.71,51407,15.19,73750.0,-4.03,-5.11,-5.11,0,*50
1537671969.96,51408,15.19,73750.8,-4.03,-5.23,-5.19,0,*56
1537671971.22,51409,15.19,73746.3,-4.03,-5.19,-5.11,0,*56
1537671972.48,51410,15.19,73748.5,-4.03,-5.19,-5.23,0,*5F
1537671973.73,51411,15.19,73748.5,-4.03,-5.23,-5.31,0,*54
1537671974.99,51412,15.19,73752.5,-4.03,-5.19,-5.31,0,*5E
1537671976.25,51413,15.19,73750.0,-4.03,-5.23,-5.23,0,*55
1537671977.51,51414,15.19,73752.8,-4.03,-5.31,-5.23,0,*51
1537671978.77,51415,15.19,73754.3,-4.03,-5.19,-5.23,0,*5A
1537671980.03,51416,15.19,73752.0,-4.03,-5.23,-5.31,0,*53
1537671981.29,51417,15.19,73752.8,-4.03,-5.23,-5.23,0,*51
1537671982.54,51418,15.19,73752.0,-4.03,-5.19,-5.19,0,*5E
1537671983.8,51419,15.19,73752.5,-4.03,-5.19,-5.19,0,*5F
1537671985.06,51420,15.19,73752.8,-4.03,-5.31,-5.23,0,*56
1537671986.34,51421,15.19,73752.5,-4.01,-5.31,-5.23,0,*55
1537671987.63,51422,15.19,73752.5,-4.01,-5.31,-5.23,0,*56
1537671988.85,51423,15.19,73750.5,-4.01,-5.43,-5.43,0,*54
1537671990.08,51424,15.19,73754.5,-4.01,-5.43,-5.43,0,*53
1537671991.3,51425,15.19,73750.3,-4.01,-5.43,-5.43,0,*52
1537671992.51,51426,15.19,73748.3,-4.03,-5.47,-5.55,0,*50
1537671993.74,51427,15.19,73748.5,-4.01,-5.55,-5.47,0,*53
1537671994.97,51428,15.19,73750.8,-4.01,-5.47,-5.47,0,*5F
1537671996.21,51429,15.19,73750.5,-4.01,-5.55,-5.55,0,*5E
1537671997.46,51430,15.13,73744.8,-4.03,-5.61,-5.69,0,*5C
1537671998.71,51431,15.19,73748.8,-4.03,-5.61,-5.61,0,*55
1537671999.97,51432,15.19,73750.0,-4.03,-5.61,-5.61,0,*56
1537672001.22,51433,15.19,73748.3,-4.05,-5.73,-5.65,0,*56
1537672002.45,51434,15.19,73748.3,-4.03,-5.61,-5.55,0,*57
1537672003.66,51435,15.19,73746.0,-4.05,-5.51,-5.51,0,*57
1537672004.86,51436,15.19,73744.5,-4.03,-5.47,-5.43,0,*56
1537672006.07,51437,15.19,73742.3,-4.05,-5.51,-5.39,0,*5B
1537672007.27,51438,15.19,73748.0,-4.03,-5.47,-5.35,0,*59
1537672008.48,51439,15.19,73746.3,-4.05,-5.51,-5.39,0,*55
1537672009.68,51440,15.19,73746.8,-4.03,-5.47,-5.35,0,*56
1537672010.88,51441,15.19,73746.0,-4.05,-5.39,-5.47,0,*5D
1537672012.09,51442,15.19,73746.0,-4.05,-5.47,-5.35,0,*52
1537672013.29,51443,15.19,73744.3,-4.03,-5.35,-5.43,0,*51
1537672014.49,51444,15.19,73744.0,-4.03,-5.47,-5.43,0,*53
1537672015.69,51445,15.19,73744.0,-4.03,-5.47,-5.35,0,*53
1537672016.9,51446,15.19,73744.8,-4.05,-5.39,-5.39,0,*53
1537672018.09,51447,15.19,73742.5,-4.03,-5.35,-5.35,0,*54
1537672019.3,51448,15.19,73738.3,-4.05,-5.39,-5.35,0,*51
1537672020.5,51449,15.19,73738.5,-4.05,-5.39,-5.39,0,*5C
1537672021.71,51450,15.19,73740.8,-4.05,-5.39,-5.39,0,*54
1537672022.91,51451,15.19,73736.5,-4.05,-5.39,-5.39,0,*55
1537672024.17,51452,15.19,73736.8,-4.05,-5.27,-5.27,0,*56
1537672025.44,51453,15.19,73740.5,-4.03,-5.23,-5.23,0,*51
1537672026.7,51454,15.19,73738.5,-4.03,-5.23,-5.23,0,*56
1537672027.95,51455,15.19,73736.8,-4.03,-5.31,-5.31,0,*57
1537672029.21,51456,15.19,73738.0,-4.05,-5.27,-5.27,0,*52
1537672030.48,51457,15.19,73742.3,-4.03,-5.23,-5.23,0,*55
1537672031.71,51458,15.19,73740.8,-4.03,-5.35,-5.27,0,*59
1537672032.96,51459,15.19,73746.5,-4.03,-5.19,-5.11,0,*53
1537672034.22,51460,15.19,73746.5,-4.03,-5.19,-5.19,0,*51
1537672035.45,51461,15.19,73742.5,-4.05,-5.39,-5.23,0,*5D
1537672036.71,51462,15.19,73742.5,-4.03,-5.31,-5.31,0,*53
1537672037.97,51463,15.19,73740.8,-4.03,-5.31,-5.31,0,*52
1537672039.22,51464,15.19,73742.5,-4.03,-5.23,-5.31,0,*56
1537672040.47,51465,15.19,73742.0,-4.03,-5.11,-5.11,0,*54
1537672041.72,51466,15.19,73744.0,-4.03,-5.11,-5.11,0,*57
1537672042.98,51467,15.19,73744.5,-4.03,-5.19,-5.19,0,*56
1537672044.23,51468,15.19,73742.5,-4.03,-5.19,-5.11,0,*51
1537672045.44,51469,15.19,73746.5,-4.05,-5.47,-5.47,0,*5E
1537672046.64,51470,15.19,73744.0,-4.05,-5.47,-5.35,0,*53
1537672047.85,51471,15.19,73746.3,-4.05,-5.47,-5.35,0,*52
1537672049.08,51472,15.19,73748.3,-4.03,-5.31,-5.35,0,*56
1537672050.34,51473,15.19,73744.5,-4.05,-5.23,-5.27,0,*51
1537672051.6,51474,15.19,73748.0,-4.03,-5.31,-5.23,0,*57
1537672052.81,51475,15.19,73746.5,-4.05,-5.43,-5.43,0,*53
1537672054.0,51476,15.19,73748.5,-4.03,-5.43,-5.43,0,*56
1537672055.2,51477,15.19,73750.0,-4.03,-5.47,-5.43,0,*53
1537672056.41,51478,15.19,73748.8,-4.05,-5.47,-5.47,0,*5E
1537672057.61,51479,15.13,73744.3,-4.03,-5.35,-5.35,0,*59
1537672058.8,51480,15.19,73750.5,-4.03,-5.43,-5.43,0,*5F
1537672060.01,51481,15.19,73748.3,-4.05,-5.47,-5.47,0,*58
1537672061.22,51482,15.13,73744.8,-4.05,-5.47,-5.51,0,*5C
1537672062.43,51483,15.19,73752.0,-4.05,-5.51,-5.47,0,*5D
1537672063.64,51484,15.19,73744.8,-4.05,-5.47,-5.51,0,*5A
1537672064.85,51485,15.19,73748.5,-4.05,-5.51,-5.51,0,*5C
1537672066.05,51486,15.19,73746.3,-4.05,-5.47,-5.47,0,*5F
1537672067.27,51487,15.19,73744.8,-4.05,-5.47,-5.51,0,*59
1537672068.48,51488,15.19,73740.3,-4.05,-5.51,-5.51,0,*51
1537672069.68,51489,15.19,73742.0,-4.05,-5.51,-5.39,0,*5E
1537672070.89,51490,15.19,73742.5,-4.05,-5.47,-5.39,0,*51
1537672072.1,51491,15.19,73742.5,-4.05,-5.39,-5.39,0,*59
1537672073.3,51492,15.19,73738.8,-4.05,-5.39,-5.39,0,*5A
1537672074.51,51493,15.19,73738.0,-4.05,-5.39,-5.39,0,*5B
1537672075.71,51494,15.19,73742.5,-4.05,-5.39,-5.39,0,*5C
1537672076.92,51495,15.19,73742.8,-4.09,-5.51,-5.51,0,*51
1537672078.12,51496,15.19,73748.5,-4.09,-5.51,-5.51,0,*52
1537672079.38,51497,15.19,73742.5,-4.05,-5.61,-5.61,0,*5F
1537672080.61,51498,15.19,73744.8,-4.05,-5.61,-5.51,0,*53
1537672081.87,51499,15.19,73742.8,-4.05,-5.61,-5.61,0,*51
1537672083.08,51500,15.19,73740.3,-4.05,-5.51,-5.51,0,*50
1537672084.31,51501,15.19,73738.3,-4.05,-5.61,-5.47,0,*55
1537672085.54,51502,15.19,73740.3,-4.05,-5.61,-5.47,0,*56
1537672086.74,51503,15.19,73738.3,-4.05,-5.47,-5.47,0,*53
1537672087.94,51504,15.19,73742.8,-4.09,-5.51,-5.43,0,*5B
1537672089.17,51505,15.19,73738.0,-4.11,-5.51,-5.51,0,*50
1537672090.38,51506,15.19,73740.8,-4.09,-5.51,-5.51,0,*5A
1537672091.58,51507,15.19,73740.0,-4.09,-5.51,-5.43,0,*58
1537672092.79,51508,15.19,73742.0,-4.09,-5.51,-5.51,0,*54
1537672093.99,51509,15.19,73744.0,-4.05,-5.39,-5.39,0,*59
1537672095.19,51510,15.19,73746.5,-4.09,-5.43,-5.43,0,*5D
1537672096.38,51511,15.19,73746.3,-4.09,-5.39,-5.43,0,*51
1537672097.58,51512,15.19,73744.3,-4.09,-5.39,-5.43,0,*52
1537672098.78,51513,15.19,73750.5,-4.09,-5.39,-5.39,0,*5E
1537672099.97,51514,15.19,73746.3,-4.09,-5.43,-5.43,0,*59
1537672101.17,51515,15.19,73744.5,-4.09,-5.43,-5.43,0,*58
1537672102.36,51516,15.19,73744.8,-4.09,-5.43,-5.43,0,*5B
1537672103.56,51517,15.19,73748.3,-4.09,-5.43,-5.43,0,*5A
1537672104.76,51518,15.19,73748.0,-4.09,-5.55,-5.51,0,*51
1537672106.0,51519,15.19,73748.5,-4.11,-5.51,-5.51,0,*5D
1537672107.2,51520,15.19,73750.3,-4.05,-5.51,-5.47,0,*55
1537672108.41,51521,15.19,73750.8,-4.05,-5.51,-5.39,0,*5D
1537672109.62,51522,15.19,73748.3,-4.05,-5.47,-5.47,0,*50
1537672110.82,51523,15.19,73750.8,-4.09,-5.51,-5.51,0,*5D
1537672112.02,51524,15.19,73750.8,-4.09,-5.43,-5.43,0,*5A
1537672113.22,51525,15.19,73748.3,-4.05,-5.39,-5.39,0,*57
1537672114.43,51526,15.19,73750.8,-4.05,-5.47,-5.35,0,*51
1537672115.66,51527,15.19,73750.5,-4.05,-5.61,-5.51,0,*56
1537672116.92,51528,15.19,73750.3,-4.05,-5.61,-5.61,0,*5A
1537672118.12,51529,15.19,73744.5,-4.05,-5.51,-5.47,0,*5C